Regional Weather Roundup
Issued by NWS Charleston, WV

Home | Current Version | Previous Version | Text Only | Print | Product List | Glossary On
Versions: 1 2 3 4 5 6 7 8 9 10 11 12 13 14 15 16 17 18 19 20 21 22 23 24 25 26 27
000
ASUS41 KRLX 200410
RWRRLX
West Virginia Regional Weather Roundup
National Weather Service Charleston WV
1200 AM EDT SUN APR 20 2014

Note: "fair" indicates few or no clouds below 12,000 feet with no
significant weather and/or obstructions to visibility.

WVZ003-200500-
Northern Panhandle of West Virginia

CITY           SKY/WX    TMP DP  RH WIND       PRES   REMARKS
WHEELING       MOCLDY    51  22  31 N6        30.28F
$$

WVZ009-200500-
Northwest West Virginia

CITY           SKY/WX    TMP DP  RH WIND       PRES   REMARKS
PARKERSBURG    MOCLDY    51  33  50 CALM      30.29S
$$

WVZ006-200500-
Western West Virginia

CITY           SKY/WX    TMP DP  RH WIND       PRES   REMARKS
HUNTINGTON     MOCLDY    57  32  38 NE7       30.22F
$$

WVZ015-200500-
West Central West Virginia

CITY           SKY/WX    TMP DP  RH WIND       PRES   REMARKS
CHARLESTON     CLOUDY    56  34  43 E7        30.23F
$$

WVZ031-200500-
North Central West Virginia

CITY           SKY/WX    TMP DP  RH WIND       PRES   REMARKS
CLARKSBURG     CLOUDY    49  26  41 NE6       30.27S
MORGANTOWN     MOCLDY    51  24  34 CALM      30.29S
$$

WVZ035-042-045-200500-
South Central West Virginia

CITY           SKY/WX    TMP DP  RH WIND       PRES   REMARKS
BECKLEY        MOCLDY    53  36  52 SE5       30.26S
BLUEFIELD      CLOUDY    54  37  52 VRB6      30.26S
LEWISBURG      CLOUDY    47  36  64 CALM      30.27S
$$

WVZ047-200500-
Northern Mountains of West Virginia

CITY           SKY/WX    TMP DP  RH WIND       PRES   REMARKS
ELKINS         MOCLDY    41  32  70 CALM      30.28S
$$

WVZ052-200500-
Eastern Panhandle of West Virginia

CITY           SKY/WX    TMP DP  RH WIND       PRES   REMARKS
MARTINSBURG    MOCLDY    50  26  39 CALM      30.32R
PETERSBURG     MOCLDY    48  42  79 CALM      30.32R
$$



USA.gov is the U.S. government's official web portal to all federal, state and local government web resources and services.